Location: Unspecified
(45.4615°N, 74.0512°W)
Time: 02:13:36
(UTC-04:00)

CZ-3 Stage 3 - Pass Details

Date: 27 September 2018
Orbit: 371 x 34821 km, 30.4° (Epoch: 19 October)

Event Time Altitude Azimuth Distance (km) Brightness Sun altitude
Rises 19:57:29 0° 235° (SW) 14,847 9.7 -13.6°
Reaches altitude 10° 20:09:01 10° 233° (SW) 16,537 9.8 -15.6°
Maximum altitude 22:37:49 39° 248° (WSW) 33,606 10.7 -38.1°
Drops below altitude 10° 05:10:03 10° 199° (SSW) 6,039 6.7 -18.3°
Sets 05:13:43 0° 186° (S) 5,859 6.8 -17.6°
